Location: Paris
(48.6709°N, 2.3750°E)
Time: 21:42:04
(UTC+01:00)

ISS - Pass Details

Date: 03 November 2021
Orbit: 417 x 422 km, 51.6° (Epoch: 04 December)

Event Time Altitude Azimuth Distance (km) Brightness Sun altitude
Exits shadow 04:48:35 18° 67° (ENE) 1,096 -0.9 -28.6°
Drops below altitude 10° 04:49:39 10° 73° (ENE) 1,501 0.0 -28.4°
Sets 04:51:47 0° 79° (E) 2,364 1.3 -28.1°
